Overview Statistics Trail Chart Weather Telemetry Raw packets
 

This is the latest recevied weather packets stored in our database for station/object KD8DNS. If no packets are shown the sender has not sent any weather packets the latest 10 day(s).

<< 3 4 5 6 7 8 9 >>
Time Temp. Humidity Pressure Rain* Wind** Luminosity Snow
1788643140 30° C 68% 1015.4 hPa 0 mm - 69 W/m² -
1788642836 30° C 68% 1015.2 hPa 0 mm - 79 W/m² -
1788642532 30° C 68% 1015.3 hPa 0 mm - 72 W/m² -
1788642231 30.56° C 69% 1015.4 hPa 0 mm - 69 W/m² -
1788641930 30° C 71% 1015.2 hPa 0 mm - 73 W/m² -
1788641625 29.44° C 71% 1015.3 hPa 0 mm - 68 W/m² -
1788641324 29.44° C 74% 1015.3 hPa 0 mm - 69 W/m² -
1788641020 28.89° C 73% 1015.4 hPa 0 mm - 277 W/m² -
1788640713 28.33° C 76% 1015.3 hPa 0 mm - 317 W/m² -
1788640410 27.78° C 76% 1015.2 hPa 0 mm - 289 W/m² -
1788640105 28.33° C 75% 1015.4 hPa 0 mm - 410 W/m² -
1788639800 28.33° C 77% 1015.4 hPa 0 mm - 413 W/m² -
1788639496 28.33° C 76% 1015.4 hPa 0 mm - 439 W/m² -
1788639190 28.33° C 76% 1015.8 hPa 0 mm - 401 W/m² -
1788638884 28.33° C 75% 1015.5 hPa 0 mm - 484 W/m² -
1788638581 28.33° C 75% 1015.7 hPa 0 mm - 471 W/m² -
1788638273 28.33° C 76% 1015.8 hPa 0 mm - 489 W/m² -
1788637968 27.78° C 77% 1016 hPa 0 mm - 527 W/m² -
1788637664 27.22° C 79% 1016.2 hPa 0 mm - 553 W/m² -
1788637362 27.22° C 78% 1016.1 hPa 0 mm - 217 W/m² -
1788637057 27.22° C 77% 1016.1 hPa 0 mm - 546 W/m² -
1788636752 27.22° C 78% 1016.2 hPa 0 mm - 589 W/m² -
1788636447 27.78° C 78% 1016.4 hPa 0 mm - 131 W/m² -
1788636144 27.78° C 78% 1016.5 hPa 0 mm - 677 W/m² -
1788635843 27.78° C 79% 1016.5 hPa 0 mm - 653 W/m² -

* Rain latest hour (hover to see other rain measurements)
** Current wind speed in m/s (hover to see current wind gust speed)